[[{"header":{"parameterUnit":"m.s-1","parameterCategory":1,"la1":30.2991,"la2":30.254,"lo1":-89.0895,"lo2":-89.0444,"dy":0.0017,"dx":0.0017,"nx":28,"ny":28,"refTime":"2023-05-01T21:00:00:Z","depth":0,"parameterNumber":2,"parameterNumberName":"U-component_of_WINDS"},"data":[0,0,0,0,0,0,0,0,0,0,0,0,0,0,0,0,0,0,0,0,0,0,0,0,0,0,0,0,0,0,0,0,0,0,0,0,0,0,0,0,0,0,0,0,0,0,0,0,0,0,0,0,0,0,0,0,0,0,-0.0672,-0.0672,0,-0.0652,-0.0652,-0.0652,-0.0603,-0.0602,-0.0601,-0.06,-0.0582,-0.0582,-0.0583,0,0,0,0,0,0,0,0,0,0,0,0,0,-0.0669,-0.0669,-0.0672,-0.0672,-0.0672,-0.0652,-0.0652,-0.0652,-0.0603,-0.0602,-0.0601,-0.06,-0.0582,-0.0582,-0.0583,0,0,0,0,0,0,0,0,0,0,0,0,0,-0.0662,-0.067,-0.0672,-0.0645,-0.0642,-0.0652,-0.0652,-0.0652,-0.0604,-0.0602,-0.0601,-0.0599,-0.0581,-0.0582,-0.0583,-0.0618,0,0,-0.0585,-0.0585,0,0,0,0,0,0,0,0,-0.0663,-0.0662,-0.0649,-0.0647,-0.0644,-0.0629,-0.0644,-0.0641,-0.0604,-0.0618,-0.06,-0.0598,-0.0599,-0.0598,-0.0598,-0.0617,-0.0616,-0.0585,-0.0585,-0.0586,-0.0586,0,0,0,0,0,0,0,-0.0663,-0.0663,-0.0664,-0.0649,-0.0646,-0.0634,-0.0632,-0.0643,-0.0618,-0.0617,-0.0613,-0.0612,-0.0597,-0.0597,-0.0597,-0.0616,-0.0585,-0.0585,-0.0586,-0.0586,-0.0664,-0.0666,0,0,0,0,0,0,-0.0667,-0.0664,-0.0665,-0.0664,-0.065,-0.0636,-0.0633,-0.0635,-0.0617,-0.0613,-0.0613,-0.061,-0.0597,-0.0596,-0.0596,-0.0636,-0.0586,-0.0586,-0.0587,-0.0662,-0.0664,-0.0666,0,0,0,0,0,0,-0.0667,-0.0668,-0.0666,-0.0663,-0.0661,-0.0637,-0.0641,-0.0636,-0.0636,-0.0614,-0.0609,-0.0618,-0.0595,-0.0595,-0.0613,-0.0635,-0.0587,-0.0587,-0.066,-0.0663,-0.0665,-0.0717,0,0,0,0,0,0,-0.0668,-0.0668,-0.0681,-0.0663,-0.0662,-0.0683,-0.0642,-0.0636,-0.0637,-0.0632,-0.0617,-0.0614,-0.0594,-0.0612,-0.0614,-0.0635,-0.0588,-0.0658,-0.0662,-0.0664,-0.0714,-0.0721,-0.0728,0,0,0,0,0,-0.0668,-0.0697,-0.0682,-0.0682,-0.0677,-0.0684,-0.0683,-0.066,-0.0639,-0.0652,-0.0638,-0.0614,-0.0632,-0.0614,-0.0616,-0.0638,-0.0657,-0.0661,-0.0664,-0.071,-0.072,-0.0728,0,0,0,0,0,0,-0.0718,-0.0694,-0.0677,-0.0701,-0.0695,-0.0676,-0.0691,-0.067,-0.067,-0.0666,-0.0637,-0.0635,-0.0657,-0.0649,-0.0629,-0.0671,-0.0641,-0.0645,-0.0675,-0.0684,-0.0691,-0.0693,-0.0588,0,0,0,0,0,-0.0732,-0.0739,-0.0717,-0.0741,-0.0739,-0.0716,-0.0718,-0.07,-0.0693,-0.069,-0.0677,-0.0672,-0.0676,-0.068,-0.0682,-0.0712,-0.0709,-0.0728,-0.0735,-0.0741,-0.0745,-0.0761,-0.0769,-0.0678,-0.0678,-0.0678,0,0,-0.0761,-0.0748,-0.0755,-0.0751,-0.0744,-0.0752,-0.0714,-0.0724,-0.073,-0.0692,-0.0708,-0.0699,-0.069,-0.0714,-0.0724,-0.0708,-0.077,-0.0746,-0.0751,-0.0752,-0.0766,-0.0774,-0.0782,-0.0681,-0.068,-0.068,0,0,-0.0817,-0.0809,-0.0827,-0.0821,-0.0811,-0.0796,-0.08,-0.0784,-0.0776,-0.0792,-0.0763,-0.077,-0.0778,-0.0774,-0.0773,-0.0828,-0.0806,-0.083,-0.0868,-0.0883,-0.089,-0.0896,-0.0917,-0.0924,-0.0834,-0.0834,-0.0834,0,-0.0855,-0.0866,-0.084,-0.0852,-0.0851,-0.0816,-0.0835,-0.0831,-0.0823,-0.0823,-0.0806,-0.0815,-0.0807,-0.083,-0.0843,-0.0843,-0.0848,-0.0831,-0.0891,-0.0897,-0.0903,-0.0922,-0.0929,-0.0837,-0.0837,-0.0836,-0.0836,0,-0.0912,-0.092,-0.0937,-0.0929,-0.093,-0.0946,-0.0923,-0.0927,-0.091,-0.0897,-0.0913,-0.0902,-0.0903,-0.0907,-0.089,-0.0927,-0.0918,-0.0896,-0.0865,-0.0915,-0.0932,-0.0939,-0.0841,-0.084,-0.0839,-0.0839,0,0,-0.1,-0.0978,-0.0984,-0.0981,-0.0967,-0.0973,-0.0988,-0.0987,-0.0992,-0.0988,-0.0999,-0.1007,-0.0987,-0.0986,-0.0968,-0.0982,-0.1027,-0.0958,-0.0958,-0.0972,-0.1068,-0.1085,-0.1094,-0.1012,-0.1014,-0.1015,-0.1069,0,-0.1054,-0.1077,-0.1054,-0.1081,-0.1089,-0.1056,-0.1069,-0.1062,-0.105,-0.1055,-0.1042,-0.1048,-0.1021,-0.102,-0.1032,-0.1019,-0.1046,-0.1015,-0.1024,-0.1024,-0.1027,-0.1103,-0.112,-0.1172,-0.1076,-0.1077,-0.1078,0,-0.1119,-0.1118,-0.1146,-0.1131,-0.1133,-0.1145,-0.1143,-0.1148,-0.114,-0.1131,-0.113,-0.1108,-0.1122,-0.1091,-0.111,-0.1089,-0.1092,-0.1086,-0.1087,-0.1088,-0.1054,-0.1105,-0.1188,-0.1196,-0.1088,-0.1087,-0.1086,0,-0.1181,-0.1186,-0.1204,-0.1201,-0.1184,-0.1193,-0.1187,-0.1177,-0.1179,-0.1177,-0.1178,-0.1179,-0.1179,-0.118,-0.116,-0.1139,-0.1181,-0.1149,-0.1174,-0.1175,-0.1185,-0.1185,-0.1269,-0.1186,-0.1186,-0.1186,-0.1186,0,-0.1244,-0.1263,-0.1231,-0.1242,-0.1262,-0.1236,-0.1257,-0.1247,-0.1239,-0.1248,-0.122,-0.1229,-0.1201,-0.1207,-0.1192,-0.121,-0.121,-0.1203,-0.1199,-0.1206,-0.1207,-0.1207,-0.1203,-0.1188,-0.1187,-0.1187,-0.1187,0,-0.1316,-0.1296,-0.1313,-0.1295,-0.1291,-0.1307,-0.1292,-0.1302,-0.1288,-0.13,-0.1301,-0.128,-0.1286,-0.1265,-0.1268,-0.1258,-0.1285,-0.1274,-0.1287,-0.1284,-0.1311,-0.1309,-0.1399,-0.141,-0.1319,-0.132,-0.1321,0,-0.1358,-0.1371,-0.1355,-0.1359,-0.1353,-0.136,-0.1361,-0.1336,-0.1339,-0.1331,-0.1342,-0.1345,-0.1347,-0.1358,-0.1343,-0.1346,-0.1335,-0.1367,-0.1335,-0.1342,-0.1336,-0.1336,-0.1337,-0.1373,-0.1374,-0.1375,-0.1376,0,-0.1433,-0.1423,-0.1425,-0.1425,-0.1427,-0.1426,-0.1422,-0.1427,-0.14,-0.1405,-0.141,-0.1411,-0.1414,-0.1418,-0.1417,-0.1411,-0.139,-0.1386,-0.1392,-0.14,-0.1407,-0.1404,-0.1305,-0.1384,-0.1383,-0.1383,-0.1382,-0.1382,-0.1492,-0.1502,-0.1493,-0.1497,-0.1492,-0.1489,-0.1497,-0.1485,-0.1489,-0.1489,-0.1474,-0.1483,-0.1475,-0.1471,-0.1467,-0.1474,-0.146,-0.1468,-0.1471,-0.1473,-0.1478,-0.1405,-0.1474,-0.1474,-0.1473,-0.1473,-0.1473,0,-0.1566,-0.1558,-0.1562,-0.1558,-0.1562,-0.1541,-0.1536,-0.154,-0.1548,-0.1543,-0.1545,-0.1551,-0.1555,-0.1541,-0.1543,-0.1552,-0.1542,-0.1553,-0.1552,-0.1551,-0.149,-0.1485,-0.1561,-0.1561,-0.1561,-0.1561,-0.1561,-0.1561,-0.1606,-0.1623,-0.1611,-0.1626,-0.1617,-0.1626,-0.1625,-0.1623,-0.1618,-0.1627,-0.163,-0.162,-0.1611,-0.1612,-0.1615,-0.1611,-0.1613,-0.1628,-0.1621,-0.1564,-0.1556,-0.1547,-0.1542,-0.1629,-0.1629,-0.1681,-0.1681,-0.1682]},{"header":{"parameterUnit":"m.s-1","parameterCategory":1,"la1":30.2991,"la2":30.254,"lo1":-89.0895,"lo2":-89.0444,"dy":0.0017,"dx":0.0017,"nx":28,"ny":28,"refTime":"2023-05-01T21:00:00:Z","depth":0,"parameterNumber":3,"parameterNumberName":"V-component_of_WINDS"},"data":[0,0,0,0,0,0,0,0,0,0,0,0,0,0,0,0,0,0,0,0,0,0,0,0,0,0,0,0,0,0,0,0,0,0,0,0,0,0,0,0,0,0,0,0,0,0,0,0,0,0,0,0,0,0,0,0,0,0,0.2502,0.2502,0,0.251,0.2511,0.2511,0.2504,0.2504,0.2504,0.2503,0.2513,0.2513,0.2514,0,0,0,0,0,0,0,0,0,0,0,0,0,0.248,0.2481,0.2502,0.2502,0.2502,0.251,0.2511,0.2511,0.2504,0.2504,0.2503,0.2503,0.2512,0.2513,0.2514,0,0,0,0,0,0,0,0,0,0,0,0,0,0.2489,0.2481,0.2502,0.25,0.25,0.251,0.2511,0.2511,0.2504,0.2504,0.2503,0.2503,0.2512,0.2513,0.2514,0.2527,0,0,0.2516,0.2516,0,0,0,0,0,0,0,0,0.2489,0.249,0.25,0.25,0.25,0.2506,0.2506,0.2516,0.2504,0.2503,0.2503,0.2503,0.2511,0.2512,0.2514,0.2528,0.2528,0.2516,0.2517,0.2517,0.2517,0,0,0,0,0,0,0,0.2488,0.249,0.2505,0.25,0.25,0.2499,0.2499,0.2508,0.2509,0.2503,0.2502,0.2503,0.2511,0.2513,0.2514,0.2528,0.2516,0.2517,0.2517,0.2518,0.2553,0.2553,0,0,0,0,0,0,0.2488,0.2489,0.2505,0.2506,0.2493,0.2499,0.25,0.2504,0.2509,0.2509,0.2504,0.2503,0.2512,0.2513,0.2515,0.253,0.2517,0.2518,0.2518,0.2552,0.2553,0.2553,0,0,0,0,0,0,0.2487,0.2489,0.2505,0.2497,0.2499,0.25,0.2505,0.2505,0.2508,0.251,0.251,0.2506,0.2512,0.2514,0.2524,0.253,0.2518,0.2519,0.2552,0.2552,0.2553,0.2562,0,0,0,0,0,0,0.2487,0.2489,0.2494,0.2497,0.25,0.2514,0.2505,0.2505,0.2509,0.2508,0.2512,0.2512,0.2512,0.2523,0.2525,0.2531,0.2519,0.2551,0.2552,0.2553,0.2561,0.2563,0.2564,0,0,0,0,0,0.2486,0.2496,0.2494,0.2496,0.2506,0.2514,0.2515,0.2514,0.2509,0.2514,0.2516,0.2512,0.253,0.2524,0.2526,0.2533,0.2551,0.2552,0.2553,0.256,0.2562,0.2564,0,0,0,0,0,0,0.2494,0.2497,0.2494,0.2506,0.251,0.2513,0.2519,0.2517,0.2522,0.2521,0.252,0.2521,0.2531,0.2533,0.2527,0.2546,0.2539,0.2541,0.2544,0.2546,0.2548,0.2547,0.252,0,0,0,0,0,0.2497,0.2503,0.2506,0.2516,0.2518,0.2518,0.2522,0.2521,0.2524,0.2526,0.2528,0.2532,0.2538,0.2543,0.2548,0.2561,0.2562,0.2567,0.2569,0.257,0.2571,0.2578,0.258,0.2557,0.2557,0.2557,0,0,0.2503,0.2506,0.251,0.2517,0.252,0.2527,0.252,0.2527,0.2532,0.2527,0.2537,0.2539,0.2543,0.2555,0.256,0.2556,0.2578,0.2571,0.2572,0.2573,0.2579,0.2581,0.2583,0.2557,0.2557,0.2557,0,0,0.2519,0.2521,0.253,0.2533,0.2537,0.2537,0.2539,0.2542,0.2543,0.2553,0.2549,0.2556,0.2566,0.2569,0.2573,0.2589,0.2586,0.2591,0.2599,0.2606,0.2608,0.2609,0.2615,0.2617,0.2592,0.2592,0.2592,0,0.2526,0.2536,0.2535,0.2542,0.2545,0.2541,0.255,0.2553,0.2559,0.2561,0.2558,0.2571,0.2574,0.2586,0.259,0.2592,0.2595,0.259,0.2607,0.2609,0.2611,0.2616,0.2618,0.2593,0.2593,0.2593,0.2593,0,0.2545,0.2552,0.2558,0.2564,0.2568,0.2576,0.2576,0.258,0.2579,0.2579,0.2589,0.2592,0.2599,0.2602,0.26,0.2613,0.2611,0.2608,0.2601,0.2613,0.2618,0.262,0.2594,0.2593,0.2593,0.2593,0,0,0.2565,0.257,0.2572,0.2574,0.2578,0.2584,0.2592,0.2598,0.2601,0.2606,0.2612,0.2621,0.2618,0.2621,0.2621,0.2626,0.2639,0.2622,0.2622,0.2624,0.2653,0.2655,0.2658,0.2637,0.2637,0.2637,0.2652,0,0.258,0.2593,0.2592,0.2605,0.2611,0.2608,0.2615,0.2618,0.2619,0.2624,0.2625,0.2632,0.2627,0.2629,0.2635,0.2636,0.2644,0.2635,0.2643,0.2643,0.2641,0.266,0.2663,0.2677,0.2654,0.2655,0.2655,0,0.2599,0.2604,0.2617,0.262,0.2623,0.2629,0.2634,0.2639,0.2643,0.2643,0.2647,0.2645,0.2654,0.2647,0.2658,0.2652,0.2655,0.2656,0.2657,0.2657,0.2649,0.2661,0.2681,0.2683,0.2658,0.2658,0.2657,0,0.2612,0.2622,0.2631,0.2633,0.2637,0.2641,0.2643,0.2646,0.265,0.2655,0.2657,0.2663,0.2666,0.267,0.267,0.2665,0.2681,0.2675,0.2682,0.2682,0.2685,0.2685,0.2706,0.2688,0.2688,0.2688,0.2688,0,0.2628,0.2637,0.2636,0.2642,0.2651,0.265,0.2659,0.266,0.2663,0.2669,0.2667,0.2672,0.2672,0.2678,0.2678,0.2687,0.2688,0.2688,0.2688,0.2688,0.2688,0.269,0.2689,0.2688,0.2688,0.2688,0.2688,0,0.2644,0.2644,0.2654,0.2657,0.2658,0.2664,0.2667,0.2672,0.2673,0.268,0.2682,0.2683,0.2689,0.269,0.2698,0.2698,0.2708,0.2707,0.2707,0.2707,0.2713,0.2713,0.2736,0.2739,0.272,0.272,0.272,0,0.2654,0.2661,0.2664,0.2668,0.267,0.2676,0.2679,0.2678,0.2682,0.2687,0.2692,0.2698,0.2703,0.2714,0.2715,0.2721,0.272,0.2728,0.2721,0.2721,0.272,0.2719,0.272,0.2729,0.2729,0.2729,0.273,0,0.2673,0.2672,0.2677,0.2683,0.2687,0.2691,0.2695,0.2698,0.2698,0.2702,0.2709,0.2712,0.272,0.2726,0.2732,0.2734,0.2732,0.2732,0.2734,0.2734,0.2733,0.2733,0.271,0.2731,0.2731,0.2731,0.2731,0.2731,0.2686,0.2691,0.2694,0.27,0.2702,0.2706,0.2711,0.2712,0.2718,0.2724,0.2723,0.273,0.2734,0.2741,0.2744,0.2749,0.2747,0.275,0.275,0.2751,0.2751,0.2732,0.2751,0.2751,0.275,0.275,0.275,0,0.2703,0.2705,0.271,0.2716,0.272,0.2718,0.2722,0.2726,0.2732,0.2735,0.274,0.2748,0.2754,0.2756,0.2762,0.2766,0.2765,0.2768,0.2767,0.2768,0.2754,0.2751,0.2768,0.2768,0.2768,0.2768,0.2768,0.2768,0.2713,0.2722,0.2722,0.2732,0.2733,0.274,0.2743,0.2746,0.2749,0.2757,0.2762,0.2763,0.2766,0.2772,0.2778,0.2778,0.2781,0.2783,0.2783,0.277,0.2769,0.2767,0.2765,0.2784,0.2784,0.2797,0.2797,0.2797]}]]